Tracking 25405 objects as of 26-Jan-2022
HD Live streaming from Space Station
objects crossing your sky now

SIRIO

Track SIRIO now!
SIRIO is classified as:


NORAD ID: 10294
Int'l Code: 1977-080A
Perigee: 35,756.0 km
Apogee: 35,831.7 km
Inclination: 10.8 °
Period: 1,436.1 minutes
Semi major axis: 42164 km
RCS: 0.14 m2 (medium)
Launch date: August 25, 1977
Source: Italy (IT)
Launch site: AIR FORCE EASTERN TEST RANGE (AFETR)
aabbcc
Your satellite tracking list
Your tracking list is empty




NASA's NSSDC Master Catalog

Two Line Element Set (TLE):
1 10294U 77080A   22025.95157421 -.00000084  00000-0  00000-0 0  9996
2 10294  10.7580 313.6486 0008983 117.0277 112.9388  1.00271446101844
Source of the keplerian elements: AFSPC